This is the latest recevied weather packets stored in our database for station/object ES0THZ-13. If no packets are shown the sender has not sent any weather packets the latest 10 day(s).
| Time | Temp. | Humidity | Pressure | Rain* | Wind** | Luminosity | Snow |
|---|---|---|---|---|---|---|---|
| 1777764691 | 8.33° C | 75% | 1003.5 hPa | - | - | - | - |
| 1777763541 | 8.89° C | 75% | 1004.8 hPa | - | - | - | - |
| 1777762464 | 8.89° C | 74% | 1004.7 hPa | - | - | - | - |
| 1777761351 | 8.89° C | 74% | 1005 hPa | - | - | - | - |
| 1777760256 | 8.89° C | 74% | 1005.1 hPa | - | - | - | - |
| 1777759196 | 8.89° C | 73% | 1004.6 hPa | - | - | - | - |
| 1777758021 | 9.44° C | 73% | 1005.6 hPa | - | - | - | - |
| 1777756991 | 9.44° C | 72% | 1006.4 hPa | - | - | - | - |
| 1777755861 | 9.44° C | 71% | 1005.4 hPa | - | - | - | - |
| 1777754846 | 9.44° C | 70% | 1006.6 hPa | - | - | - | - |
| 1777753777 | 10° C | 69% | 1006.4 hPa | - | - | - | - |
| 1777752656 | 10° C | 69% | 1006.7 hPa | - | - | - | - |
| 1777751556 | 10.56° C | 68% | 1006.2 hPa | - | - | - | - |
| 1777750586 | 10.56° C | 67% | 1006.3 hPa | - | - | - | - |
| 1777749561 | 11.11° C | 66% | 1006.8 hPa | - | - | - | - |
| 1777748391 | 11.11° C | 66% | 1006.9 hPa | - | - | - | - |
| 1777747309 | 11.11° C | 65% | 1007.1 hPa | - | - | - | - |
| 1777746251 | 11.11° C | 64% | 1006.8 hPa | - | - | - | - |
| 1777745116 | 11.67° C | 63% | 1007.2 hPa | - | - | - | - |
| 1777744051 | 12.22° C | 61% | 1007.3 hPa | - | - | - | - |
| 1777742961 | 13.33° C | 60% | 1008.6 hPa | - | - | - | - |
| 1777741866 | 13.89° C | 59% | 1007.6 hPa | - | - | - | - |
| 1777740766 | 14.44° C | 58% | 1007.6 hPa | - | - | - | - |
| 1777739791 | 15.56° C | 58% | 1007.3 hPa | - | - | - | - |
| 1777738716 | 15.56° C | 57% | 1008.2 hPa | - | - | - | - |
* Rain since midnight (hover to see other rain measurements)
** Current wind speed in m/s (hover to see current wind gust speed)